www.pogodaiklimat.ru

Погода и климат >> Архив погоды >> Япония >> Обихиро


ПОГОДА в Обихиро

  • Прогноз погоды в Обихиро
  • Монитор погоды в Обихиро

АРХИВ ПОГОДЫ в Обихиро

Время (UTC), дата Ветер
(напр.,м/с)
 
Видим.   Явления Облачность Т
(С)
Тd
(С)
f
(%)
Тe
(С)
Тes
(С)
Комфортность P
(гПа)
Po
(гПа)
Тmin
(С)
Tmax
(С)
R
(мм)
R24
(мм)
S
(см)
06 19.08 ЮВ 2 20 км 9/9
[St]
+20.1 +17.3 84 +24 +25 комфорт 1016.4 1011.3
09 19.08 ЮВ 2 н/о н/о +17.4 +16.1 92 +18 +18 1017.2 1012.0
10 19.08 ЮВ 2 н/о н/о +17.2 +16.1 93 +18 +18 1017.7 1012.5
11 19.08 ЮВ 2 н/о н/о +17.0 +16.0 94 +18 +18 1018.1 1012.9
12 19.08 ЮВ 1 8000 м дымка 10/10
[St]
+16.8 +15.8 94 +18 +18 1018.1 1012.9 +20.1
13 19.08 ЮВ 1 н/о н/о +16.5 +16.0 97 +18 +18 1018.1 1012.9
14 19.08 В 1 н/о н/о +16.2 +16.1 99 +18 +18 1018.0 1012.8
15 19.08 ЮВ 1 н/о н/о +16.1 +16.1 100 +17 +17 1018.0 1012.8
16 19.08 В 1 н/о н/о +16.2 +16.2 100 +18 +18 1017.5 1012.3
17 19.08 В 1 н/о н/о +16.2 +16.2 100 +17 +17 1017.6 1012.4
18 19.08 В 1 3000 м слаб. морось 10/10
[St]
+16.2 +16.2 100 +18 +18 1017.3 1012.1 1
19 19.08 В 1 н/о н/о +16.1 +16.1 100 +17 +17 1017.0 1011.8
20 19.08 В 1 н/о н/о +16.3 +16.3 100 +17 +17 1016.9 1011.7
21 19.08 В 1 н/о н/о +16.2 +16.2 100 +17 +17 1017.0 1011.8
22 19.08 В 1 н/о н/о +16.3 +16.3 100 +17 +17 1016.7 1011.5
23 19.08 ЮВ 1 н/о н/о +16.6 +16.3 98 +17 +17 1016.4 1011.2
00 20.08 ЮВ 1 6000 м слаб. ливневой дождь {морось} 10/10
[Frnb]
+16.7 +16.2 97 +18 +18 1016.0 1010.8 +16.0 3
01 20.08 В 1 н/о н/о +16.8 +16.2 96 +18 +18 1015.6 1010.4
02 20.08 В 1 н/о н/о +17.0 +16.4 96 +18 +18 1015.2 1010.0
03 20.08 ЮВ 1 н/о н/о +17.2 +16.2 94 +18 +18 1015.1 1009.9
04 20.08 ЮВ 1 н/о н/о +17.5 +16.5 94 +19 +19 1014.8 1009.6
05 20.08 В 1 н/о н/о +17.4 +16.6 95 +18 +18 1014.4 1009.2
06 20.08 В 1 10 км в посл. час ливневой дождь 10/10
[Frnb]
+17.5 +16.9 96 +19 +19 1014.0 1008.8 0.5
07 20.08 В 1 н/о н/о +17.0 +16.9 99 +18 +18 1014.2 1009.0
08 20.08 В 1 н/о н/о +16.9 +16.9 100 +18 +18 1014.1 1008.9
09 20.08 В 1 н/о н/о +16.6 +16.6 100 +18 +18 1014.4 1009.2
10 20.08 В 1 н/о н/о +16.3 +16.3 100 +18 +18 1014.1 1008.9
11 20.08 С 2 н/о н/о +16.3 +16.2 99 +17 +17 1014.3 1009.1
12 20.08 В 1 10 км в посл. час ливневой дождь 10/10
[Frnb]
+16.2 +16.2 100 +17 +17 1014.0 1008.8 +17.8 14
13 20.08 В 1 н/о н/о +16.1 +16.1 100 +17 +17 1013.3 1008.1
14 20.08 В 1 н/о н/о +16.2 +16.2 100 +17 +17 1013.1 1007.9
15 20.08 В 1 н/о н/о +16.2 +16.2 100 +17 +17 1013.2 1008.0
16 20.08 В 1 н/о н/о +16.1 +16.1 100 +17 +17 1013.3 1008.1
17 20.08 штиль 0 н/о н/о +16.2 +16.2 100 +16 +16 1013.1 1007.9
18 20.08 ЮВ 1 10 км {ливн. осадки} 10/10
[St]
+16.2 +16.2 100 +18 +18 1012.9 1007.7 0.0
20 20.08 штиль 0 н/о н/о +16.3 +16.3 100 +16 +16 1013.6 1008.4
22 20.08 ЮВ 1 н/о н/о +17.1 +16.8 98 +19 +19 1014.0 1008.8
23 20.08 В 1 н/о н/о +17.3 +16.7 96 +19 +19 1014.2 1009.0
00 21.08 В 1 8000 м слаб. ливневой дождь 10/10
[Frnb]
+17.5 +17.0 97 +19 +19 1014.4 1009.2 +16.1 0.0
01 21.08 0 н/о н/о +18.2 +17.2 94 1014.9 1009.7
02 21.08 В 1 н/о н/о +18.5 +17.0 91 +20 +20 1014.6 1009.4
03 21.08 В 1 н/о н/о +19.0 +17.3 90 +22 +22 комфорт 1014.0 1008.9
05 21.08 ЮВ 2 н/о н/о +18.6 +17.6 94 +20 +20 1014.1 1008.9
06 21.08 ЮВ 2 4000 м слаб. ливневой дождь 10/10
[Frnb]
+18.8 +18.2 96 +21 +21 комфорт 1014.1 1009.0 0.0
07 21.08 ЮВ 2 н/о н/о +18.6 +16.8 89 +20 +20 1014.2 1009.0
08 21.08 ЮВ 1 н/о н/о +18.0 +16.3 90 +19 +19 1014.6 1009.4
09 21.08 ЮВ 2 н/о н/о +17.5 +16.0 91 +18 +18 1014.7 1009.5
10 21.08 ЮВ 2 н/о н/о +17.0 +15.4 90 +18 +18 1015.3 1010.1
11 21.08 ЮВ 2 н/о н/о +16.8 +15.2 90 +17 +17 1016.1 1010.9
12 21.08 ЮВ 1 10 км {ливн. осадки} 9/9
[St]
+16.7 +15.4 92 +18 +18 1016.0 1010.8 +19.7 0.0
13 21.08 ЮВ 1 н/о н/о +16.4 +15.1 92 +17 +17 1016.0 1010.8
15 21.08 ЮВ 1 н/о н/о +16.2 +15.1 93 +18 +18 1016.1 1010.9
16 21.08 В 1 н/о н/о +16.0 +15.7 98 +17 +17 1015.6 1010.4
17 21.08 В 1 н/о н/о +15.7 +15.4 98 +16 +16 1015.7 1010.5
18 21.08 В 1 10 км {ливн. осадки} 9/9
[St]
+15.7 +15.4 98 +16 +16 1015.6 1010.4 0.0
19 21.08 В 1 н/о н/о +15.8 +15.3 97 +17 +17 1015.5 1010.3
20 21.08 В 1 н/о н/о +15.8 +15.2 96 +17 +17 1016.0 1010.8
22 21.08 ЮВ 1 н/о н/о +16.5 +15.4 93 +17 +17 1016.2 1011.0
23 21.08 ЮВ 1 н/о н/о +16.9 +15.3 90 +18 +18 1016.1 1010.9
00 22.08 ЮВ 2 10 км 10/10
[St]
+17.8 +15.6 87 +19 +19 1016.3 1011.1 +15.7 0.0
01 22.08 В 2 н/о н/о +18.5 +15.4 82 +20 +20 1016.1 1010.9
02 22.08 ЮВ 2 н/о н/о +18.0 +15.5 85 +19 +19 1015.7 1010.5
04 22.08 ЮВ 2 н/о н/о +18.7 +14.8 78 +20 +20 1015.5 1010.3
05 22.08 ЮВ 2 н/о н/о +18.4 +15.3 82 +20 +20 1015.4 1010.2
06 22.08 Ю 2 10 км в посл. час ливневой дождь 10/10
[Cu med, cong]
+18.7 +14.6 77 +20 +20 1015.3 1010.1 0.0
07 22.08 ЮВ 2 н/о н/о +18.5 +13.8 74 +20 +20 1014.9 1009.7
08 22.08 ЮВ 2 н/о н/о +18.1 +13.8 76 +19 +19 1015.3 1010.1
09 22.08 ЮВ 1 н/о н/о +17.6 +14.3 81 +19 +19 1015.3 1010.1
11 22.08 В 1 н/о н/о +16.3 +14.1 87 +18 +18 1016.1 1010.9
12 22.08 В 1 8000 м дымка {ливн. осадки} 10/10
[St]
+16.4 +14.2 87 +17 +17 1015.6 1010.4 +19.1 0.0
13 22.08 В 1 н/о н/о +15.9 +13.9 88 +17 +17 1015.3 1010.1
14 22.08 Ю 1 н/о н/о +15.9 +14.1 89 +17 +17 1015.6 1010.4
15 22.08 В 1 н/о н/о +15.7 +13.9 89 +17 +17 1015.2 1010.0
16 22.08 В 1 н/о н/о +15.6 +13.8 89 +17 +17 1014.6 1009.4
17 22.08 штиль 0 н/о н/о +15.2 +14.4 95 +15 +15 1014.5 1009.3
18 22.08 В 1 1800 м слаб. ливневой дождь 10/10
[Frnb]
+14.7 +14.6 99 +15 +15 1013.9 1008.7 5
19 22.08 В 1 н/о н/о +14.7 +14.7 100 +15 +15 1013.7 1008.5
20 22.08 В 1 н/о н/о +14.6 +14.6 100 +15 +15 1013.4 1008.2
21 22.08 В 2 н/о н/о +14.4 +14.4 100 +14 +14 1013.1 1007.9
22 22.08 В 1 н/о н/о +14.3 +14.3 100 +15 +15 1012.9 1007.7
23 22.08 В 1 н/о н/о +14.1 +14.0 99 +14 +14 1012.6 1007.4
00 23.08 В 1 3000 м слаб. ливневой дождь 10/10
[Frnb]
+14.4 +14.3 99 +15 +15 1012.3 1007.1 +14.0 18
01 23.08 СВ 1 н/о н/о +14.5 +14.2 98 +16 +16 1011.7 1006.5
02 23.08 СВ 2 н/о н/о +14.9 +14.1 95 +15 +15 1010.5 1005.3
03 23.08 СЗ 2 н/о н/о +14.8 +14.5 98 +14 +14 1009.6 1004.4
04 23.08 СЗ 2 н/о н/о +14.7 +14.4 98 +15 +15 1009.4 1004.2
05 23.08 С 2 н/о н/о +15.3 +15.0 98 +15 +15 1007.9 1002.7
06 23.08 СЗ 2 6000 м слаб. ливневой дождь 10/10
[Frnb]
+15.3 +15.0 98 +15 +15 1007.8 1002.6 13
07 23.08 З 2 н/о н/о +15.6 +15.5 99 +15 +15 1007.0 1001.8
08 23.08 СЗ 2 н/о н/о +15.6 +15.3 98 +15 +15 1006.2 1001.0
09 23.08 З 2 н/о н/о +15.8 +15.5 98 +16 +16 1005.4 1000.2
10 23.08 З 2 н/о н/о +15.6 +15.6 100 +15 +15 1005.3 1000.1
11 23.08 З 2 н/о н/о +15.7 +15.7 100 +16 +16 1005.6 1000.4
12 23.08 З 2 4000 м в посл. час ливневой дождь 10/10
[Frnb]
+15.5 +15.5 100 +16 +16 1005.4 1000.2 +15.8 18
13 23.08 З 1 н/о н/о +15.8 +15.7 99 +16 +16 1005.2 1000.0
14 23.08 З 1 н/о н/о +15.9 +15.8 99 +17 +17 1004.7 999.5
15 23.08 штиль 0 н/о н/о +16.0 +15.9 99 +16 +16 1003.9 998.7
16 23.08 Ю 1 н/о н/о +15.6 +15.6 100 +16 +16 1003.7 998.5
17 23.08 ЮВ 1 н/о н/о +15.4 +15.4 100 +16 +16 1003.3 998.1
18 23.08 ЮЗ 1 6000 м дымка 10/10
[St]
+15.7 +15.7 100 +17 +17 1002.8 997.6
19 23.08 ЮЗ 1 н/о н/о +16.1 +16.1 100 +17 +17 1002.7 997.6
20 23.08 Ю 1 н/о н/о +16.1 +16.1 100 +17 +17 1002.9 997.8
21 23.08 ЮЗ 1 н/о н/о +16.4 +16.4 100 +17 +17 1003.2 998.1
22 23.08 Ю 1 н/о н/о +17.1 +17.1 100 +19 +19 1003.2 998.1
23 23.08 Ю 1 н/о н/о +18.5 +18.3 99 +20 +20 1002.9 997.8
00 24.08 Ю 1 10 км {ливн. осадки} 9/9
[St]
+19.1 +16.7 86 +22 +23 комфорт 1002.9 997.8 +15.1 0.0
02 24.08 Ю 1 н/о н/о +21.4 +17.4 78 +25 +25 комфорт 1002.1 997.1
03 24.08 З 1 н/о н/о +23.1 +18.9 77 +29 +29 очень
душно
1001.8 996.8
04 24.08 З 2 н/о н/о +25.4 +19.5 70 +31 +31 очень
душно
1001.5 996.5
05 24.08 Ю 2 н/о н/о +26.4 +18.8 63 +31 +31 душно 1001.2 996.3
06 24.08 ЮЗ 3 40 км {ливн. осадки} 6/6
[Cb calv]
+27.0 +19.1 62 +32 +35 очень
душно
1001.1 996.2 0.0
07 24.08 З 5 н/о н/о +25.8 +15.8 54 +29 +29 душно 1001.5 996.6
08 24.08 СЗ 5 н/о н/о +25.0 +16.4 59 +28 +28 жарко 1002.1 997.1
09 24.08 СЗ 5 н/о н/о +22.6 +15.9 66 +27 +27 душно 1003.0 998.0
10 24.08 СЗ 5 н/о н/о +21.4 +15.0 67 +25 +25 комфорт 1003.8 998.8
11 24.08 СЗ 4 н/о н/о +20.5 +14.9 70 +23 +23 комфорт 1004.4 999.3
12 24.08 СЗ 4 20 км ясно +20.0 +14.4 70 +22 +22 комфорт 1004.4 999.3 +27.5 0.0
13 24.08 С 2 н/о н/о +19.5 +13.9 70 +22 +22 комфорт 1004.5 999.4
14 24.08 СЗ 4 н/о н/о +19.1 +13.7 71 +20 +20 1004.6 999.5
15 24.08 СЗ 6 н/о н/о +18.8 +13.4 71 +19 +19 1004.6 999.5
16 24.08 СЗ 5 н/о н/о +18.5 +13.4 72 +19 +19 1004.7 999.6
18 24.08 СВ 2 20 км 1/1
[Cu med, cong]
+17.3 +13.4 78 +18 +18 1005.4 1000.3
19 24.08 С 2 н/о н/о +16.5 +13.8 84 +17 +17 1005.9 1000.7
20 24.08 СВ 2 н/о н/о +16.6 +13.9 84 +17 +17 1006.5 1001.3
21 24.08 С 2 н/о н/о +17.3 +14.2 82 +18 +18 1006.8 1001.7
22 24.08 С 3 н/о н/о +18.8 +14.3 75 +20 +20 1007.1 1002.0
23 24.08 СЗ 4 н/о н/о +20.5 +13.7 65 +23 +23 комфорт 1006.9 1001.8
00 25.08 С 5 40 км 1/1
[Cu med, cong Ci sp]
+22.3 +13.9 59 +25 +30 комфорт 1006.8 1001.8 +16.2
01 25.08 СЗ 6 н/о н/о +23.6 +13.2 52 +26 +26 жарко 1006.6 1001.6
02 25.08 СЗ 5 н/о н/о +24.5 +13.4 50 +27 +27 жарко 1006.1 1001.1
03 25.08 СЗ 5 н/о н/о +24.3 +13.8 52 +27 +27 жарко 1005.8 1000.8
04 25.08 З 5 н/о н/о +25.0 +14.2 51 +27 +27 жарко 1005.5 1000.5
05 25.08 СЗ 5 н/о н/о +24.6 +14.1 52 +27 +27 жарко 1005.6 1000.6
06 25.08 СЗ 4 40 км 4/4
[Cu med, cong]
+24.3 +14.7 55 +27 +30 жарко 1006.0 1001.0
07 25.08 СЗ 4 н/о н/о +22.9 +14.7 60 +27 +27 душно 1006.8 1001.8
08 25.08 СЗ 5 н/о н/о +22.8 +13.9 57 +26 +26 жарко 1007.2 1002.2
09 25.08 С 4 н/о н/о +20.2 +15.0 72 +23 +23 комфорт 1008.2 1003.1
10 25.08 С 3 н/о н/о +17.3 +14.0 81 +17 +17 1009.5 1004.3
11 25.08 С 2 н/о н/о +16.4 +13.3 82 +17 +17 1010.5 1005.3
12 25.08 СВ 1 20 км 9/9
[Cu med, cong]
+16.3 +12.9 80 +17 +17 1011.0 1005.8 +26.1
13 25.08 СВ 1 н/о н/о +16.1 +12.7 80 +17 +17 1011.4 1006.2
14 25.08 В 1 н/о н/о +16.1 +12.7 80 +17 +17 1011.5 1006.3
15 25.08 В 2 н/о н/о +15.6 +12.5 82 +16 +16 1011.4 1006.2
17 25.08 ЮВ 1 н/о н/о +14.5 +12.5 88 +16 +16 1011.7 1006.5

 

Местоположение метеостанции Обихиро (Япония): широта 42.92 долгота 143.21 высота над уровнем моря 43 м.

В архиве по умолчанию представлена погода в Обихиро за последнюю неделю. Архивные данные за месяц целиком и за предыдущие месяцы, начиная с января 2011 года, Вы можете получить, выбрав интересующий диапазон дат из раскрывающегося списка и нажав кнопку "Ввод!".


*Определитесь, кто Вы:
робот инопланетянин человек

Внимание! Время в таблицах - всемирное. Для получения местного времени необходимо прибавить поправку, которая равна 9 ч.

Смотрите также архив погоды в соседних городах и на ближайших метеорологических станциях:

Погода в Хироо (Япония) (69 км)
Погода в Уракава (Япония) (91 км)
Погода в Кусиро (Япония) (95 км)
Погода в Асахикаве (Япония) (117 км)
Погода в Ивамидзаве (Япония) (121 км)
Погода в Томакомае (Япония) (140 км)
Погода в Абасири (Япония) (150 км)
Погода в Саппоро (Япония) (154 км)
Погода в Момбецу (Япония) (159 км)
Погода в Румои (Япония) (171 км)

Пояснения к столбцам:

Ветер - указаны скорость ветра в м/с - средняя за 10 мин, порывы в срок и между сроками (в фигурных скобках) и направление, откуда дует ветер: С - северный, СВ - северо-восточный, В - восточный, ЮВ - юго-восточный, Ю - южный, ЮЗ - юго-западный, З - западный, СЗ - северо-западный.
Видимость - горизонтальная дальность видимости в метрах или километрах. При видимости от 1 до 10 км при отсутствии осадков обычно наблюдается дымка, при ухудшении видимости до 1 км и менее - туман. В сухую погоду видимость может ухудшаться дымом, пылью или мглою.
Явления - указаны атмосферные явления, наблюдавшиеся в срок или в последний час перед сроком; фигурными скобками обозначены явления, наблюдавшиеся между сроками (за 1-3 часа до срока); квадратными скобками обозначены град или гололедные отложения с указанием их диаметра в мм.
Облачность - указаны через наклонную черту общая и нижняя облачность в баллах и высота нижней границы облаков в метрах; квадратными скобками обозначены формы облаков: Ci - перистые, Cs - перисто-слоистые, Cc - перисто-кучевые, Ac - высококучевые, As - высокослоистые, Sc - слоисто-кучевые, Ns - слоисто-дождевые, Cu - кучевые, Cb - кучево-дождевые. Подробнее классификацию облаков см. в Атласе облаков (PDF).
T - Температура воздуха - температура, измеренная на высоте 2 м над землей.
Td - Температура точки росы - температура, при понижении до которой содержащийся в воздухе водяной пар достигнет насыщения.
f - Относительная влажность воздуха - влажноcть воздуха, измеренная на высоте 2 м над землей.
Te - Эффективная температура - температура, которую ощущает одетый по сезону человек в тени. Характеристика душности погоды. При расчете учитывается влияние влажности воздуха и скорости ветра на теплоощущения человека.
Tes - Эффективная температура на солнце - температура, которую ощущает человек, с поправкой на солнечный нагрев. Характеристика знойности погоды. Зависит от высоты солнца над горизонтом, облачности и скорости ветра. Ночью, в пасмурную погоду, а также при ветре 12 м/с и более поправка равна нулю.
P - Атмосферное давление - приведенное к уровню моря атмосферное давление.
Po - Атмосферное давление - измеренное на уровне метеостанции атмосферное давление.
Tmin - Минимальная температура - минимум температуры воздуха на высоте 2 м над землей.
Tmax - Максимальная температура - максимум температуры воздуха на высоте 2 м над землей.
R - Количество осадков - Количество выпавших осадков за период времени, мм. При наведении курсора мыши на число - период времени, за который выпало указанное количество осадков.
R24 - Количество осадков - Количество выпавших осадков за 24 часа, мм.
S - Снежный покров - Высота снежного покрова, см. При наведении курсора мыши на число - состояние снежного покрова и степень покрытия местности в баллах.